Regional Weather Roundup
Issued by NWS

Home | Current Version | Previous Version | Graphics & Text | Print | Product List | Glossary On
Versions: 1 2 3 4 5 6 7 8 9 10 11 12 13 14 15 16 17 18 19 20 21 22 23 24 25 26 27 28 29 30 31 32 33 34 35 36 37 38 39 40 41 42 43 44 45 46 47 48 49 50
000
ASUS43 KLMK 160302
RWRKY
KENTUCKY REGIONAL WEATHER ROUNDUP
NATIONAL WEATHER SERVICE LOUISVILLE KY
1100 PM EDT MON SEP 15 2014

NOTE "FAIR" INDICATES FEW OR NO CLOUDS BELOW 12,000 FEET
WITH NO SIGNIFICANT WEATHER AND/OR OBSTRUCTIONS TO VISIBILITY.

KYZ001>023-026-027-061>063-070>075-160400-
WESTERN AND SOUTH CENTRAL KENTUCKY

CITY           SKY/WX    TMP DP  RH WIND       PRES   REMARKS
PADUCAH        CLOUDY    69  63  81 SW5       30.10R
HENDERSON      CLOUDY    70  59  68 SW7       30.07S
OWENSBORO      CLOUDY    68  62  80 S6        30.08S
HOPKINSVILLE   PTCLDY    66  65  94 S3        30.11S
BOWLING GREEN  CLOUDY    68  62  81 S6        30.11R
GLASGOW        PTCLDY    64  62  95 CALM      30.11S
$$

KYZ024-025-028>034-038-045-046-053-160400-
NORTH CENTRAL KENTUCKY

CITY           SKY/WX    TMP DP  RH WIND       PRES   REMARKS
LOUISVILLE/SDF LGT RAIN  66  58  75 SE8       30.08S
LOUISVILLE/LOU CLOUDY    64  58  80 S5        30.08F
FORT KNOX      MOCLDY    64  60  90 CALM      30.08R
$$

KYZ035>037-039>044-047>052-055>060-089>105-160400-
NORTHEAST KENTUCKY

CITY           SKY/WX    TMP DP  RH WIND       PRES   REMARKS
LEXINGTON      CLOUDY    66  58  75 S9        30.09F
COVINGTON      LGT RAIN  60  57  89 N7        30.09S
FRANKFORT      CLOUDY    63  59  87 S5        30.08S
$$

KYZ054-064>069-076>088-106>120-160400-
SOUTHEAST KENTUCKY

CITY           SKY/WX    TMP DP  RH WIND       PRES   REMARKS
JACKSON        LGT RAIN  63  61  93 VRB6      30.14S VSB 1
LONDON         CLOUDY    67  61  81 CALM      30.14S
SOMERSET       NOT AVBL
MIDDLESBORO    MOCLDY    64  63  96 CALM      30.15F
MONTICELLO     MOCLDY    64  63  97 CALM      30.14F
$$



USA.gov is the U.S. government's official web portal to all federal, state and local government web resources and services.